Wind_Speed
26 27 27 28 28 28 28 30 31 32 32 33 33 33 33 33 33 33 32 32 32 31 31 30 29 29 29 28 27 27 27 27 27 27 27 26 26 26 25 24 24 24 24
27 27 27 28 29 29 30 31 32 33 33 34 35 36 35 35 35 35 34 34 34 34 33 33 32 31 31 31 31 30 30 30 29 29 28 28 28 27 26 26 26 26 26
28 27 27 28 29 30 31 32 33 34 34 35 37 37 38 37 37 37 36 35 35 35 35 35 34 34 33 33 33 33 33 32 32 31 31 30 30 30 29 29 28 28 28
28 28 28 29 30 30 31 31 32 31 32 35 36 38 39 39 38 38 38 38 37 37 37 37 37 36 36 35 35 35 34 34 34 33 33 33 33 32 32 32 31 31 31
28 29 29 30 30 30 31 31 32 31 32 34 36 37 38 39 38 39 39 39 39 39 38 39 39 38 38 38 37 36 36 35 35 36 35 35 35 35 35 35 34 33 33
29 29 30 30 30 31 31 31 31 33 33 34 35 37 39 38 39 39 39 40 40 40 40 40 40 40 40 40 40 39 38 38 38 38 38 37 37 37 37 37 37 36 36
29 30 30 30 30 30 32 32 32 32 33 34 36 37 38 38 39 39 40 40 41 41 41 42 42 41 41 41 42 41 41 40 40 40 40 39 39 39 39 39 39 39 39
30 30 30 30 30 30 31 32 33 32 32 33 35 36 37 38 39 39 40 40 41 42 42 42 41 41 42 42 43 43 42 42 41 41 41 41 41 41 42 42 42 42 42
30 30 30 30 30 30 30 31 31 32 32 32 33 34 34 35 38 38 39 40 40 41 42 42 43 42 43 43 43 43 43 43 43 43 43 43 43 43 43 43 43 43 43
30 30 30 30 30 30 30 30 30 31 31 32 33 34 35 35 37 38 39 40 40 41 42 42 43 44 44 44 44 44 44 44 44 45 45 45 45 45 45 45 45 45 46
30 30 30 30 30 30 31 31 31 31 31 32 33 33 34 35 36 38 39 39 40 41 43 43 43 44 45 46 46 46 46 46 46 45 45 45 46 46 46 47 47 47 47
30 30 30 30 30 30 31 31 31 31 32 33 33 33 33 35 35 37 39 39 39 40 42 43 44 44 45 45 46 46 46 47 47 47 47 47 47 48 48 48 48 48 49
32 32 32 31 31 31 31 31 31 31 32 32 33 33 33 35 36 36 37 38 39 40 41 43 44 45 46 45 45 46 46 46 47 48 48 48 49 49 49 50 50 50 51
32 32 32 32 32 32 32 33 33 33 33 33 33 33 34 35 36 37 37 38 39 40 41 42 43 44 45 45 45 46 46 46 48 48 48 49 49 50 52 52 52 51 52
32 32 33 33 33 33 34 34 34 33 33 34 34 34 34 34 36 37 38 40 41 41 41 41 42 43 44 45 46 46 47 48 48 48 48 49 50 51 52 53 53 53 53
33 33 33 33 33 33 34 34 34 34 34 34 34 35 35 35 35 37 38 39 40 41 41 41 42 42 44 45 46 47 48 49 49 50 50 50 50 51 52 53 54 55 56
34 34 34 34 34 34 34 34 34 35 35 34 34 35 35 35 36 37 38 39 40 40 41 41 42 43 44 45 46 46 47 49 50 51 51 51 51 52 53 54 54 55 56
35 34 34 34 34 35 34 34 35 35 34 35 36 36 36 36 36 37 38 38 38 39 40 40 41 42 43 45 46 47 48 49 50 51 51 52 52 53 54 54 54 55 56
36 35 35 34 35 36 36 35 35 35 35 35 36 36 36 36 36 37 37 37 37 39 40 40 40 41 43 44 46 47 49 50 50 51 52 53 53 54 55 55 56 56 57
36 36 36 35 36 37 37 37 36 35 35 35 35 36 36 36 37 37 37 38 38 39 39 40 40 41 42 44 46 47 48 49 50 51 52 53 54 55 55 56 56 57 57
37 37 37 36 36 36 37 37 37 36 35 35 35 35 36 36 37 37 37 38 39 39 39 40 41 42 43 43 45 46 47 48 48 49 50 52 53 54 54 55 55 56 56
38 38 38 37 37 37 37 37 37 37 36 36 36 36 36 36 37 38 38 39 40 40 40 40 42 43 43 44 44 45 46 47 48 49 50 51 52 52 53 54 54 55 54
39 39 39 39 39 38 38 37 36 37 37 37 37 37 37 38 38 38 39 40 40 41 41 42 42 43 43 43 44 45 46 47 48 49 50 50 51 51 52 52 53 53 52
40 39 40 40 39 39 39 38 38 38 38 38 38 37 38 38 38 39 39 39 40 41 41 42 41 42 42 43 44 45 46 47 48 49 50 50 50 50 51 51 51 51 51
39 40 40 40 39 39 39 39 39 39 39 39 38 38 38 38 39 40 39 39 40 41 42 42 42 42 42 42 42 43 44 46 47 48 49 49 48 49 49 50 50 49 49
39 39 40 39 39 39 40 39 39 39 39 39 39 39 39 39 39 40 39 39 39 39 40 41 41 42 42 42 42 43 44 44 45 45 46 46 46 47 46 47 48 48 47
Wind_Direction
263 262 262 261 262 263 263 261 261 259 257 255 254 253 253 252 251 251 251 251 250 249 250 252 253 255 256 256 256 256 257 258 259 261 262 264 266 268 269 269 270 272 273
262 261 261 261 262 264 264 264 262 260 259 257 255 253 253 253 251 251 252 251 251 250 251 252 253 254 256 256 257 258 258 259 260 261 263 264 266 267 268 268 269 271 272
262 262 262 262 263 264 265 264 263 261 259 258 256 255 254 254 253 252 251 251 251 251 252 252 253 254 255 257 258 259 260 260 261 262 263 265 266 266 267 268 269 270 271
263 263 263 262 264 265 265 264 263 262 263 259 257 256 256 254 254 253 252 252 252 252 252 253 254 255 255 256 258 259 259 260 261 262 263 265 266 265 266 267 268 269 270
263 263 263 262 264 265 265 266 263 263 264 262 259 257 256 254 253 252 252 252 253 252 253 254 254 255 255 256 257 259 260 261 262 262 263 264 264 266 267 267 268 269 270
263 263 264 265 266 266 266 266 264 264 265 264 260 258 255 254 253 253 251 251 252 253 253 253 253 255 256 256 257 258 260 261 262 262 263 264 265 265 266 267 268 269 270
265 264 265 267 268 268 266 266 265 266 267 267 262 258 255 253 253 253 252 252 252 253 254 253 253 254 255 256 257 259 260 261 263 262 263 264 264 265 266 267 268 269 270
267 267 265 267 268 270 268 266 265 266 268 269 265 259 256 254 254 255 253 252 252 252 253 254 255 255 256 257 259 260 261 262 262 263 263 264 264 265 266 267 267 268 270
267 268 268 269 269 269 269 267 266 266 268 269 265 260 257 256 256 254 253 253 253 252 251 252 254 255 256 258 259 260 262 262 262 263 264 264 265 266 266 267 268 269 270
267 267 268 270 270 270 269 268 267 268 269 269 266 262 259 259 258 256 254 254 254 253 252 253 256 257 256 257 259 260 261 262 263 264 265 266 266 266 266 267 268 269 270
266 267 268 269 269 269 269 268 269 269 270 269 268 265 262 260 259 257 256 256 255 254 254 254 255 256 257 257 258 259 261 262 263 264 265 266 267 268 267 267 268 269 270
266 266 267 268 269 270 269 268 268 270 270 270 269 268 264 260 260 259 258 258 257 256 255 255 256 257 259 259 260 261 262 262 263 263 265 266 267 268 269 269 269 269 270
267 267 266 266 267 268 269 269 267 269 271 271 270 269 266 262 261 261 260 259 259 258 259 259 258 258 260 261 262 262 263 264 265 266 266 267 268 268 269 269 270 271 271
266 265 265 266 266 267 268 269 267 268 270 271 271 270 268 265 263 263 261 261 261 261 261 262 261 260 260 261 263 263 264 266 267 267 268 268 269 269 269 270 270 271 271
265 265 265 266 266 266 267 266 268 269 270 271 271 270 269 267 265 263 263 262 262 263 263 264 263 263 263 263 264 265 267 267 268 269 269 270 270 270 270 271 271 271 272
264 264 265 265 266 267 268 268 269 271 271 271 272 271 270 268 266 264 265 265 265 265 265 266 265 264 264 264 266 267 268 268 270 271 271 271 271 272 272 272 273 273 273
264 265 267 267 267 268 269 269 269 271 271 270 271 272 271 270 268 267 266 267 267 266 267 267 267 267 266 266 267 267 268 269 270 272 272 272 273 273 274 274 274 274 275
264 265 267 267 267 269 269 269 269 271 272 271 271 272 270 269 269 268 268 269 268 268 269 270 270 270 270 270 269 269 270 271 272 273 273 273 273 274 275 276 276 277 277
265 265 266 267 267 268 269 269 270 272 272 271 271 271 269 269 271 270 269 268 269 270 270 271 272 272 271 271 271 271 272 272 272 273 274 275 275 275 276 277 278 279 278
264 265 266 268 269 270 270 269 270 272 272 271 271 271 269 270 272 271 270 270 271 271 272 271 272 272 273 273 273 272 272 273 273 275 276 276 277 277 278 279 279 280 279
264 265 267 269 271 271 271 269 269 270 271 272 271 271 272 272 273 272 272 272 272 273 272 273 273 273 274 275 274 274 274 275 275 276 277 278 279 279 279 279 279 279 279
264 266 267 268 270 271 271 270 270 270 271 272 272 272 272 273 273 273 275 274 274 274 275 275 275 275 275 275 275 276 276 276 277 278 279 280 280 280 280 279 280 280 279
265 266 267 268 269 271 271 271 271 270 270 272 273 272 272 273 274 275 276 275 275 275 275 276 277 276 275 275 276 277 278 279 279 280 280 281 281 281 281 281 281 281 280
265 266 266 268 269 270 270 270 270 270 271 272 273 273 273 274 275 276 276 277 277 276 275 276 278 278 277 278 278 279 279 280 280 280 280 281 281 281 281 281 281 281 280
265 266 267 268 269 269 270 270 270 271 271 272 272 273 274 275 276 277 277 278 279 279 278 278 278 278 279 279 279 280 280 281 282 282 281 281 281 281 282 282 282 282 282
264 265 266 267 268 269 270 270 270 271 272 272 273 273 275 276 277 277 278 279 280 280 280 280 279 279 279 279 280 282 283 283 284 283 283 282 282 283 282 282 282 282 283
Height
5779 5780 5781 5782 5784 5785 5786 5787 5788 5789 5791 5793 5795 5797 5799 5801 5803 5806 5808 5810 5811 5813 5815 5817 5818 5819 5821 5822 5823 5825 5826 5827 5828 5828 5829 5830 5830 5831 5831 5832 5832 5832 5832
5772 5773 5775 5775 5776 5777 5779 5779 5780 5781 5783 5785 5787 5789 5791 5793 5795 5798 5800 5802 5804 5806 5808 5810 5811 5813 5814 5816 5817 5818 5819 5821 5822 5822 5823 5824 5824 5825 5826 5826 5826 5826 5827
5765 5766 5767 5768 5769 5770 5771 5772 5772 5773 5775 5776 5778 5780 5782 5785 5787 5789 5792 5794 5796 5798 5801 5802 5804 5806 5807 5809 5810 5811 5812 5814 5815 5816 5817 5817 5818 5818 5819 5819 5820 5820 5820
5758 5759 5760 5761 5761 5762 5763 5764 5764 5765 5766 5768 5769 5771 5773 5775 5778 5781 5783 5786 5788 5790 5792 5794 5796 5798 5799 5801 5803 5803 5805 5806 5807 5808 5809 5810 5811 5811 5812 5812 5813 5813 5813
5751 5751 5752 5753 5753 5754 5755 5755 5756 5757 5757 5758 5759 5761 5763 5766 5768 5771 5774 5777 5779 5782 5784 5786 5788 5790 5791 5793 5795 5795 5797 5798 5799 5801 5801 5802 5803 5803 5804 5805 5805 5805 5806
5743 5744 5744 5744 5745 5745 5746 5747 5747 5748 5748 5748 5749 5751 5754 5756 5759 5761 5764 5767 5770 5772 5775 5777 5779 5781 5783 5784 5786 5787 5789 5790 5791 5792 5793 5794 5795 5795 5796 5796 5797 5797 5797
5735 5736 5736 5737 5737 5737 5738 5738 5739 5739 5740 5740 5740 5742 5744 5746 5749 5751 5754 5757 5760 5763 5765 5767 5770 5772 5773 5775 5777 5778 5780 5781 5782 5783 5784 5785 5785 5786 5787 5787 5788 5788 5788
5727 5728 5728 5729 5729 5729 5729 5730 5731 5731 5731 5731 5732 5732 5735 5738 5739 5741 5744 5747 5750 5753 5755 5758 5760 5762 5764 5766 5767 5769 5770 5772 5773 5774 5774 5775 5776 5777 5777 5778 5778 5778 5778
5720 5720 5721 5721 5721 5721 5722 5722 5723 5723 5723 5723 5723 5724 5726 5728 5730 5732 5734 5737 5740 5742 5745 5747 5750 5752 5754 5756 5758 5759 5760 5762 5763 5764 5764 5765 5766 5767 5767 5767 5767 5768 5768
5712 5713 5713 5713 5713 5714 5714 5714 5715 5715 5715 5715 5716 5716 5718 5719 5721 5723 5725 5727 5730 5733 5735 5737 5740 5741 5743 5745 5747 5749 5750 5751 5752 5753 5754 5754 5755 5756 5756 5756 5757 5757 5757
5705 5705 5705 5705 5706 5706 5706 5706 5707 5707 5707 5707 5707 5708 5709 5710 5711 5714 5716 5718 5721 5723 5725 5727 5729 5730 5732 5734 5736 5738 5739 5740 5741 5742 5742 5743 5744 5744 5745 5745 5745 5745 5745
5697 5697 5697 5697 5698 5698 5698 5698 5698 5699 5699 5699 5699 5699 5700 5702 5703 5705 5707 5709 5710 5712 5714 5716 5718 5719 5721 5723 5724 5726 5727 5728 5729 5730 5730 5731 5732 5732 5732 5733 5733 5733 5733
5688 5689 5689 5689 5689 5690 5690 5690 5690 5691 5691 5691 5691 5691 5692 5693 5694 5695 5696 5698 5700 5702 5704 5706 5707 5708 5710 5711 5713 5714 5715 5716 5717 5717 5718 5719 5719 5719 5720 5720 5720 5720 5720
5680 5680 5680 5681 5681 5682 5682 5682 5682 5682 5682 5682 5682 5683 5683 5683 5684 5685 5687 5688 5690 5692 5693 5695 5696 5697 5698 5700 5701 5702 5703 5703 5704 5705 5705 5706 5706 5706 5706 5706 5706 5706 5706
5671 5671 5672 5672 5673 5673 5673 5673 5673 5673 5673 5673 5673 5674 5674 5674 5675 5676 5677 5678 5679 5681 5683 5685 5686 5686 5687 5688 5689 5690 5690 5691 5692 5692 5692 5693 5693 5693 5693 5692 5692 5692 5692
5662 5663 5663 5664 5664 5664 5664 5664 5665 5664 5664 5664 5664 5664 5664 5665 5665 5666 5667 5667 5669 5670 5671 5673 5674 5675 5675 5676 5677 5678 5678 5679 5679 5679 5679 5679 5679 5679 5678 5678 5677 5677 5676
5653 5654 5654 5654 5655 5655 5655 5655 5655 5655 5655 5655 5655 5655 5655 5654 5655 5656 5656 5657 5657 5658 5660 5661 5662 5663 5663 5664 5665 5665 5666 5666 5666 5666 5665 5665 5665 5664 5663 5663 5662 5661 5660
5644 5644 5645 5645 5645 5646 5646 5646 5646 5646 5646 5646 5645 5645 5645 5645 5645 5645 5646 5646 5647 5647 5648 5649 5650 5651 5651 5652 5652 5653 5653 5652 5652 5652 5652 5651 5650 5650 5649 5648 5646 5645 5644
5634 5634 5635 5635 5636 5636 5636 5636 5636 5636 5636 5636 5635 5635 5635 5635 5635 5635 5635 5636 5636 5637 5637 5638 5638 5639 5639 5639 5639 5639 5639 5638 5638 5637 5637 5636 5635 5634 5633 5632 5630 5629 5627
5624 5625 5625 5626 5626 5626 5626 5626 5627 5626 5626 5626 5626 5625 5625 5625 5625 5625 5625 5625 5625 5625 5626 5626 5627 5627 5627 5627 5626 5626 5625 5624 5623 5622 5622 5621 5619 5618 5617 5615 5614 5612 5610
5614 5615 5615 5616 5616 5617 5617 5617 5617 5617 5617 5616 5616 5616 5616 5615 5615 5615 5615 5615 5614 5614 5614 5615 5615 5615 5615 5614 5613 5612 5612 5611 5609 5608 5607 5606 5604 5603 5600 5598 5596 5594 5593
5604 5605 5605 5606 5606 5606 5607 5607 5607 5607 5607 5607 5606 5606 5606 5605 5605 5605 5604 5604 5604 5603 5603 5603 5603 5603 5602 5601 5600 5599 5598 5597 5597 5596 5593 5591 5588 5587 5584 5582 5580 5578 5576
5593 5594 5595 5595 5596 5596 5596 5596 5596 5597 5597 5597 5596 5596 5596 5595 5594 5594 5593 5593 5592 5592 5592 5591 5590 5590 5589 5589 5588 5586 5585 5583 5582 5581 5579 5578 5574 5572 5568 5566 5563 5562 5560
5582 5583 5584 5584 5585 5586 5586 5586 5586 5586 5586 5587 5586 5586 5585 5585 5584 5584 5583 5582 5581 5580 5579 5579 5578 5577 5576 5575 5574 5573 5571 5570 5568 5565 5563 5563 5560 5557 5553 5550 5548 5546 5545
5571 5572 5573 5573 5574 5575 5575 5575 5575 5575 5576 5576 5576 5575 5574 5574 5573 5572 5572 5571 5570 5569 5567 5566 5565 5564 5562 5561 5560 5559 5558 5556 5555 5553 5549 5548 5546 5543 5540 5536 5533 5531 5530
5560 5560 5561 5562 5563 5563 5564 5564 5564 5564 5565 5565 5564 5564 5563 5562 5561 5560 5560 5559 5559 5557 5556 5554 5553 5551 5550 5548 5547 5546 5544 5542 5541 5539 5536 5534 5531 5529 5528 5525 5520 5518 5516